Вернуться в каталог

STARLINK-37261

АктивенСвязьVLEO
NORAD 68567·PAYLOAD·🇺🇸 United States

Запущен Apr 2, 2026 с Cape Canaveral Space Force Station

Loading…

Ближайшие Пролёты (ближайшие 24 часа)

TLE

СвежийSource: CelesTrak SupGP

Эпоха: Sep 15, 2026, 02:54 UTC

1 68567C 26070AB  26258.12131944 -.00071159  00000+0 -21024-2 0  2588
2 68567  53.1590 198.4970 0001558  88.4330   8.9351 15.34426074    13

Отслеживайте STARLINK-37261 в реальном времени с AllMySat

Download on the App Store